• Join FlightAware (Why Join?)
  • Login
  • US Flag GB Flag 
06:43 EDT


 

Airport Tracker/Info


-or-


 

Live Flight TrackerFlight Track Log ✈ DAL8943 ✈ 13-May-2013 ✈ KMEM - KOKC

Flight Track Log - Related Links

Times and Time Zones

All times are in EDT time to prevent confusion due to time zone crossing. See the DAL8943 flight status page for this flight to view local times or setup timezone preferences in your user account.

Time Position Orientation Groundspeed Altitude Reporting Facility
EDT Latitude Longitude Course Direction KTS MPH feet Rate Location/Type
02:44 35.0333 -89.9833 180° South 143 165 1,000  Level KMEM
02:45 34.9667 -89.9833 180° South 191 220 3,300 2,760 Climbing KMEM
02:47 34.9361 -90.1544 258° West 248 285 10,100 2,520 Climbing Memphis Center
02:48 34.9469 -90.2633 277° West 287 330 11,400 1,800 Climbing Memphis Center
02:49 34.9594 -90.3875 277° West 344 396 13,700 2,460 Climbing Memphis Center
02:50 34.9717 -90.5244 276° West 390 449 16,400 2,520 Climbing Memphis Center
02:51 34.9842 -90.6614 276° West 410 472 18,800 2,100 Climbing Memphis Center
02:52 34.9942 -90.8033 275° West 420 483 20,700 1,800 Climbing Memphis Center
02:53 35.0081 -90.9528 277° West 438 504 22,500 1,680 Climbing Memphis Center
02:54 35.0197 -91.1025 275° West 448 516 24,100 1,260 Climbing Memphis Center
02:55 35.0292 -91.2447 275° West 459 528 25,100 1,200 Climbing Memphis Center
02:56 35.0447 -91.4197 276° West 473 544 26,600 1,560 Climbing Memphis Center
02:57 35.0556 -91.5772 275° West 473 544 28,300 1,620 Climbing Memphis Center
02:58 35.0664 -91.7397 275° West 478 550 29,900 1,680 Climbing Memphis Center
02:59 35.0792 -91.8972 276° West 478 550 31,700 1,500 Climbing Memphis Center
03:00 35.0878 -92.0547 274° West 478 550 33,000 1,140 Climbing Memphis Center
03:01 35.1000 -92.2125 275° West 478 550 34,000 480 Climbing Memphis Center
03:02 35.1122 -92.3725 275° West 478 550 34,000  Level Memphis Center
03:03 35.1219 -92.5353 274° West 478 550 34,000  Level Memphis Center
03:04 35.1336 -92.6956 275° West 478 550 34,000  Level Memphis Center
03:05 35.1469 -92.8636 276° West 487 560 34,000  Level Memphis Center
03:06 35.1564 -93.0214 274° West 482 555 34,000  Level Memphis Center
03:07 35.1672 -93.1842 275° West 482 555 34,000  Level Memphis Center
03:08 35.1761 -93.3444 274° West 482 555 34,000  Level Memphis Center
03:09 35.1850 -93.4872 274° West 477 549 34,000  Level Memphis Center
03:10 35.1956 -93.6500 275° West 477 549 34,000  Level Memphis Center
03:11 35.2036 -93.8106 274° West 482 555 34,000  Level Memphis Center
03:12 35.2119 -93.9658 274° West 477 549 34,000  Level Memphis Center
03:13 35.2194 -94.1264 273° West 477 549 34,000  Level Memphis Center
03:15 35.2411 -94.4981 274° West 493 567 34,000  Level Fort Worth Center
03:16 35.2486 -94.6553 273° West 487 560 34,000  Level Fort Worth Center
03:17 35.2564 -94.8178 273° West 487 560 34,000  Level Fort Worth Center
03:18 35.2661 -94.9981 274° West 487 560 34,000  Level Fort Worth Center
03:19 35.2714 -95.1658 272° West 482 555 34,000 -300 Level Fort Worth Center
03:20 35.2806 -95.3333 274° West 488 562 33,500 -1,320 Descending Fort Worth Center
03:21 35.2872 -95.4933 273° West 488 562 31,400 -2,100 Descending Fort Worth Center
03:22 35.2958 -95.6586 274° West 488 562 29,300 -2,160 Descending Fort Worth Center
03:23 35.3022 -95.8211 273° West 488 562 27,100 -2,160 Descending Fort Worth Center
03:24 35.3064 -95.9839 272° West 488 562 25,000 -2,160 Descending Fort Worth Center
03:25 35.3122 -96.1442 273° West 482 555 22,800 -2,100 Descending Fort Worth Center
03:26 35.3178 -96.2967 273° West 469 540 20,800 -2,100 Descending Fort Worth Center
03:27 35.3233 -96.4367 273° West 444 511 18,800 -4,920 Descending Fort Worth Center
03:28 35.3283 -96.5892 272° West 441 507 11,000 -2,760 Descending Fort Worth Center
03:29 35.3439 -96.7314 278° West 435 501 13,200 600 Climbing Fort Worth Center
03:30 35.3653 -96.8586 282° West 412 474 12,200 -1,020 Descending Fort Worth Center
03:31 35.3867 -96.9731 283° West 377 434 11,200 -1,200 Descending Fort Worth Center
03:32 35.4036 -97.0722 282° West 337 388 9,800 -1,860 Descending Fort Worth Center
03:33 35.4206 -97.1664 282° West 304 350 7,500 -2,040 Descending Fort Worth Center
03:34 35.4333 -97.2481 281° West 285 328 5,800 -1,260 Descending Fort Worth Center
03:35 35.4478 -97.3269 283° West 261 300 5,000 -900 Descending Fort Worth Center
03:36 35.4583 -97.3958 281° West 234 269 4,000 -600 Descending Fort Worth Center
03:37 35.4689 -97.4619 281° West 209 241 3,800 -540 Descending Fort Worth Center
03:38 35.4792 -97.5181 283° West 196 226 3,000 -420 Descending Fort Worth Center
03:39 35.4875 -97.5717 281° West 172 198 3,000 -240 Level Fort Worth Center
03:40 35.4708 -97.6047 238° Southwest 147 169 2,600 -540 Descending Fort Worth Center
03:41 35.4414 -97.6097 188° South 101 116 2,000 -600 Descending Fort Worth Center
03:43 35.3931 -97.6008 171° South  Level Estimated
03:50 35.3931 -97.6008 341° North  Level Estimated